Date,TemperatureHighF,TemperatureAvgF,TemperatureLowF,DewpointHighF,DewpointAvgF,DewpointLowF,HumidityHigh,HumidityAvg,HumidityLow,PressureMaxIn,PressureMinIn,WindSpeedMaxMPH,WindSpeedAvgMPH,GustSpeedMaxMPH,PrecipitationSumIn
2013-1-1,57,41,30,34,31,27,90,69,34,30.32,30.22,11,2,18,0.00
2013-1-2,56,38,0,55,32,26,86,68,39,30.27,30.15,6,0,7,0.00
2013-1-3,54,40,0,55,32,27,92,72,43,30.29,30.18,7,0,9,0.00
2013-1-4,56,42,32,38,33,29,92,74,43,30.32,30.21,5,0,7,0.00
2013-1-5,50,43,35,41,38,32,93,82,69,30.30,30.13,9,1,12,0.14
2013-1-6,57,46,39,47,43,36,96,87,63,30.19,30.10,7,1,12,0.11
2013-1-7,54,43,36,44,39,35,94,85,62,30.23,30.15,6,0,7,0.00
2013-1-8,56,45,0,55,42,37,96,87,69,30.27,30.14,5,0,8,0.01
2013-1-9,48,44,39,45,42,38,97,92,83,30.19,29.91,8,1,13,0.10
2013-1-10,50,38,0,55,33,25,97,77,38,30.15,30.01,12,1,15,0.01
2013-1-11,51,38,30,35,30,26,90,75,47,30.24,30.14,6,0,11,0.00
2013-1-12,48,35,26,28,24,19,89,68,33,30.25,30.16,5,0,7,0.00
2013-1-13,49,32,0,55,25,15,87,51,28,30.32,30.21,8,1,14,0.00
2013-1-14,52,38,28,27,20,15,72,52,25,30.45,30.32,11,2,14,0.00
2013-1-15,52,38,0,55,29,25,85,68,43,30.53,30.39,6,0,7,0.00
2013-1-16,56,41,31,36,32,28,90,74,43,30.46,30.30,4,0,9,0.00
2013-1-17,58,42,30,40,32,26,92,72,42,30.31,30.18,4,0,6,0.00
2013-1-18,64,45,0,55,31,27,85,60,26,30.27,30.15,7,1,11,0.00
2013-1-19,64,45,32,36,30,24,79,60,27,30.30,30.17,5,0,8,0.00
2013-1-20,66,46,31,38,31,27,86,61,25,30.26,30.12,6,1,9,0.00
2013-1-21,60,45,33,38,33,28,84,65,36,30.21,30.13,6,0,9,0.00
2013-1-22,63,46,34,38,34,30,87,66,32,30.16,30.02,6,0,7,0.00
2013-1-23,56,48,43,48,41,34,95,78,61,30.15,30.00,6,1,9,0.47
2013-1-24,60,52,0,55,50,46,96,89,80,30.19,30.09,10,2,12,0.07
2013-1-25,63,56,51,55,53,50,97,91,72,30.19,30.03,7,1,11,0.02
2013-1-26,59,52,43,52,47,34,98,85,50,30.03,29.92,10,1,12,0.02
2013-1-27,56,44,0,55,35,27,94,69,33,30.16,30.01,10,1,17,0.00
2013-1-28,58,47,37,38,35,32,83,65,38,30.26,30.13,11,1,19,0.00
2013-1-29,63,47,38,43,38,34,85,71,43,30.36,30.23,11,1,18,0.00
2013-1-30,64,50,41,46,41,36,87,74,51,30.35,30.24,6,0,8,0.00
2013-1-31,64,48,37,47,41,35,92,78,51,30.32,30.20,4,0,6,0.00
2013-2-1,67,50,37,43,40,35,94,72,38,30.25,30.14,5,0,7,0.00
2013-2-2,68,51,41,45,41,37,88,72,40,30.29,30.19,4,0,5,0.00
2013-2-3,68,47,0,55,43,35,92,69,39,30.24,30.10,6,0,8,0.00
2013-2-4,64,51,43,47,42,36,84,70,46,30.17,30.05,6,0,10,0.00
2013-2-5,58,49,41,49,43,37,89,80,68,30.15,30.02,8,1,8,0.00
2013-2-6,61,48,36,44,39,34,94,74,46,30.17,30.07,8,1,14,0.00
2013-2-7,54,48,44,47,42,39,95,81,63,30.11,29.98,13,3,25,0.37
2013-2-8,57,46,40,41,33,22,93,65,26,30.01,29.93,16,4,27,0.00
2013-2-9,60,46,31,33,28,23,81,54,26,30.10,30.00,14,2,20,0.00
2013-2-10,65,48,34,37,31,26,83,56,25,30.14,30.00,9,1,13,0.00
2013-2-11,64,48,0,55,32,27,75,49,26,30.25,30.11,10,1,12,0.00
2013-2-12,62,49,38,40,36,31,78,62,42,30.38,30.25,6,0,7,0.00
2013-2-13,69,50,38,47,39,33,86,68,33,30.34,30.19,5,0,8,0.00
2013-2-14,74,56,42,42,38,32,85,56,23,30.28,30.15,18,4,22,0.00
2013-2-15,73,55,42,44,40,33,75,57,30,30.28,30.21,5,0,7,0.00
2013-2-16,70,54,41,46,41,36,84,65,35,30.26,30.03,5,0,6,0.00
2013-2-17,68,52,39,41,36,29,89,58,24,30.04,29.93,11,2,18,0.00
2013-2-18,62,50,40,46,39,34,83,69,50,30.00,29.85,11,2,16,0.00
2013-2-19,50,44,35,44,38,32,92,82,66,29.88,29.69,11,3,19,0.12
2013-2-20,59,44,0,55,32,26,92,61,29,30.01,29.83,18,3,22,0.00
2013-2-21,61,47,35,36,30,22,79,55,23,30.17,30.01,14,2,16,0.00
2013-2-22,62,50,38,40,36,30,77,58,38,30.24,30.10,11,1,14,0.00
2013-2-23,59,52,40,41,29,20,75,44,24,30.27,30.09,23,6,28,0.00
2013-2-24,64,49,37,32,26,20,61,44,19,30.30,30.13,13,4,20,0.00
2013-2-25,64,53,42,36,28,18,66,41,17,30.28,30.16,14,2,20,0.00
2013-2-26,66,51,0,55,27,22,62,41,19,30.25,30.14,16,3,20,0.00
2013-2-27,68,53,37,38,31,26,70,46,26,30.35,30.19,7,1,8,0.00
2013-2-28,72,58,47,44,38,32,73,50,32,30.45,30.33,10,1,12,0.00
2013-3-1,76,58,43,49,44,39,87,64,33,30.42,30.22,4,0,7,0.00
2013-3-2,71,60,49,51,48,44,84,66,45,30.25,30.04,5,0,7,0.00
2013-3-3,69,59,53,54,51,47,91,74,49,30.05,29.99,6,1,9,0.23
2013-3-4,68,57,46,52,47,42,92,72,53,30.11,29.99,6,1,12,0.00
2013-3-5,64,56,47,48,42,30,91,62,30,29.99,29.76,12,4,22,0.20
2013-3-6,59,46,0,55,42,37,92,64,45,30.01,29.74,12,4,18,0.14
2013-3-7,60,48,39,40,37,35,87,67,39,30.00,29.88,7,1,14,0.00
2013-3-8,67,52,38,40,35,29,85,57,26,30.02,29.78,16,3,21,0.00
2013-3-9,70,56,41,42,35,28,82,50,21,30.31,30.02,16,3,22,0.00
2013-3-10,73,55,41,45,37,28,69,54,22,30.36,30.21,9,1,13,0.00
2013-3-11,74,58,43,46,42,36,80,57,32,30.26,30.07,6,0,9,0.00
2013-3-12,75,61,47,52,46,42,82,61,35,30.16,30.05,7,1,9,0.00
2013-3-13,81,64,49,54,49,45,87,62,30,30.17,30.05,8,1,11,0.00
2013-3-14,78,64,52,54,48,42,77,58,36,30.14,30.06,5,1,7,0.00
2013-3-15,78,63,52,52,46,39,85,58,25,30.10,29.98,7,1,11,0.00
2013-3-16,76,62,48,46,39,28,72,46,19,30.07,29.95,12,3,21,0.00
2013-3-17,72,59,44,39,34,25,73,42,17,30.11,29.99,11,3,17,0.00
2013-3-18,71,58,43,42,37,31,74,48,27,30.10,29.99,6,1,8,0.00
2013-3-19,69,60,51,54,48,42,92,64,42,30.09,30.03,8,1,13,0.18
2013-3-20,61,56,50,55,53,48,95,89,79,30.07,30.00,16,4,21,0.20
2013-3-21,66,56,44,53,36,21,92,53,18,30.12,29.99,19,6,24,0.00
2013-3-22,64,53,42,29,24,20,49,35,19,30.14,30.04,20,6,25,0.00
2013-3-23,72,54,39,34,28,18,62,39,13,30.14,30.00,13,3,15,0.00
2013-3-24,75,59,45,43,37,31,69,46,23,30.08,29.92,5,0,8,0.00
2013-3-25,73,60,46,48,42,37,80,53,38,29.98,29.84,12,2,16,0.00
2013-3-26,71,59,48,49,45,39,83,60,41,29.98,29.89,8,1,11,0.00
2013-3-27,73,62,52,52,48,45,79,63,45,29.97,29.88,12,2,14,0.00
2013-3-28,69,61,54,54,50,46,87,69,47,30.10,29.96,8,2,12,0.00
2013-3-29,80,62,48,53,48,44,92,63,29,30.11,29.99,9,1,10,0.00
2013-3-30,76,64,52,56,50,45,81,60,42,30.03,29.93,6,1,10,0.00
2013-3-31,68,60,54,57,53,48,95,81,51,30.09,29.96,12,2,17,0.90
2013-4-1,69,58,0,55,52,49,93,76,55,30.15,30.03,5,0,10,0.01
2013-4-2,74,61,48,54,50,46,93,70,41,30.15,30.03,7,1,19,0.00
2013-4-3,76,63,53,57,52,47,85,68,43,30.13,29.94,8,1,10,0.00
2013-4-4,65,60,54,58,54,50,94,82,69,30.07,29.91,12,3,18,0.33
2013-4-5,68,61,54,55,52,51,92,75,55,30.14,30.05,9,2,12,0.00
2013-4-6,70,62,54,55,52,50,88,73,54,30.16,30.03,10,2,14,0.00
2013-4-7,68,61,52,55,50,43,89,67,49,30.08,29.73,12,3,16,0.06
2013-4-8,68,57,48,49,36,28,91,49,22,30.04,29.73,21,8,31,0.15
2013-4-9,76,61,44,41,36,33,68,42,22,30.14,30.02,19,5,26,0.00
2013-4-10,86,68,51,53,46,40,73,47,24,30.17,29.94,15,2,23,0.00
2013-4-11,78,67,58,46,39,31,54,37,18,30.00,29.79,21,7,23,0.00
2013-4-12,82,67,53,48,42,36,56,41,21,29.89,29.74,8,1,11,0.00
2013-4-13,78,67,54,52,38,22,69,39,13,29.85,29.75,13,3,19,0.00
2013-4-14,74,61,51,40,34,25,51,37,20,29.87,29.71,20,5,22,0.00
2013-4-15,64,55,45,38,32,22,68,43,20,29.93,29.76,15,6,25,0.00
2013-4-16,68,56,45,31,27,20,56,36,16,30.19,29.93,19,7,28,0.00
2013-4-17,71,57,41,32,27,22,62,35,16,30.30,30.16,21,4,25,0.00
2013-4-18,78,62,46,43,34,26,59,38,20,30.28,30.14,15,3,19,0.00
2013-4-19,81,66,52,48,43,40,70,45,27,30.23,30.03,10,2,15,0.00
2013-4-20,84,68,54,43,38,29,58,36,15,30.11,29.91,13,4,20,0.00
2013-4-21,88,71,52,45,41,37,69,39,17,30.03,29.87,18,3,18,0.00
2013-4-22,86,73,57,46,37,25,59,31,13,29.97,29.82,18,6,25,0.00
2013-4-23,85,69,54,44,29,22,39,24,14,29.98,29.77,18,4,20,0.00
2013-4-24,90,72,54,41,30,16,52,27,7,29.88,29.74,18,3,21,0.00
2013-4-25,80,67,52,51,47,16,81,53,11,30.05,29.79,9,1,13,0.00
2013-4-26,85,68,52,56,51,47,82,59,35,30.18,30.04,7,1,7,0.00
2013-4-27,89,73,58,61,54,49,80,54,32,30.18,29.98,5,1,8,0.00
2013-4-28,93,76,61,56,50,41,73,44,17,30.01,29.80,16,2,20,0.00
2013-4-29,88,77,65,48,44,39,50,32,21,29.87,29.70,18,5,28,0.00
2013-4-30,83,73,63,42,23,6,32,18,6,29.92,29.73,29,9,33,0.00
2013-5-1,90,74,57,28,19,8,25,14,6,30.11,29.93,16,6,23,0.00
2013-5-2,91,73,55,45,30,21,37,23,10,30.17,30.02,11,2,15,0.00
2013-5-3,95,76,56,47,39,30,61,30,11,30.03,29.71,15,3,19,0.00
2013-5-4,92,77,61,42,35,28,38,23,11,29.77,29.47,22,5,29,0.00
2013-5-5,75,67,59,51,46,36,64,48,29,29.78,29.50,7,1,12,0.00
2013-5-6,68,62,56,57,52,48,92,72,57,29.93,29.77,7,1,14,0.11
2013-5-7,72,63,54,56,52,48,86,69,49,30.00,29.92,6,1,10,0.00
2013-5-8,78,68,62,58,55,53,78,65,46,30.08,29.98,6,1,10,0.00
2013-5-9,85,71,58,62,57,53,85,63,43,30.10,29.96,11,1,12,0.00
2013-5-10,90,75,62,66,61,56,84,62,40,30.11,29.98,6,1,10,0.00
2013-5-11,93,79,65,69,62,57,80,59,37,30.08,29.95,6,1,8,0.00
2013-5-12,95,82,68,63,54,42,79,42,17,30.07,29.92,7,1,9,0.00
2013-5-13,93,78,61,59,51,44,62,41,27,30.02,29.86,6,1,10,0.00
2013-5-14,94,79,63,63,53,42,64,43,17,29.88,29.77,9,2,13,0.00
2013-5-15,81,72,61,58,52,48,64,51,39,29.97,29.85,7,1,12,0.00
2013-5-16,76,68,61,55,52,50,73,57,46,29.95,29.83,10,2,15,0.00
2013-5-17,78,66,55,52,47,38,78,52,25,30.00,29.89,9,1,12,0.00
2013-5-18,82,69,55,50,45,39,67,44,26,30.10,30.00,12,2,14,0.00
2013-5-19,86,74,60,44,40,30,53,32,16,30.12,29.93,19,6,24,0.00
2013-5-20,92,75,58,50,41,30,52,32,15,30.02,29.82,16,3,22,0.00
2013-5-21,80,71,54,52,38,25,50,32,16,29.95,29.79,22,5,28,0.00
2013-5-22,73,60,48,33,24,7,42,28,9,29.98,29.82,20,7,27,0.00
2013-5-23,76,63,52,42,35,28,55,37,18,29.96,29.83,7,1,11,0.00
2013-5-24,80,67,52,44,38,33,59,36,19,29.97,29.85,8,1,12,0.00
2013-5-25,80,67,53,50,45,39,65,46,29,29.97,29.86,9,1,12,0.00
2013-5-26,79,67,56,54,49,42,74,53,28,30.04,29.93,9,1,12,0.00
2013-5-27,70,62,57,58,53,48,92,73,51,30.06,29.94,11,2,18,0.18
2013-5-28,79,68,58,58,55,48,93,67,35,29.97,29.82,10,1,11,0.01
2013-5-29,83,72,62,56,51,37,76,51,20,29.90,29.80,10,2,12,0.00
2013-5-30,86,72,57,52,42,26,69,39,13,29.94,29.86,10,2,14,0.00
2013-5-31,94,77,58,43,39,34,55,28,14,29.99,29.83,18,5,23,0.00
2013-6-1,100,83,66,64,45,38,49,28,12,29.85,29.68,15,3,18,0.00
2013-6-2,96,83,65,59,51,44,51,35,17,29.71,29.57,6,1,11,0.00
2013-6-3,101,84,66,66,50,41,55,34,14,29.72,29.61,15,3,18,0.00
2013-6-4,89,77,64,63,58,54,72,53,37,29.83,29.72,7,2,11,0.00
2013-6-5,89,76,60,68,59,53,78,57,39,29.95,29.77,7,1,12,0.00
2013-6-6,94,79,65,71,62,55,74,57,38,29.88,29.72,6,1,8,0.00
2013-6-7,108,87,70,72,60,41,75,46,11,29.83,29.64,13,2,15,0.00
2013-6-8,110,93,75,61,56,49,53,32,14,29.69,29.55,16,4,21,0.00
2013-6-9,89,79,68,64,60,55,64,52,39,29.77,29.60,9,2,16,0.00
2013-6-10,74,66,59,60,57,54,92,75,57,29.92,29.76,9,1,12,0.32
2013-6-11,85,73,59,60,56,50,86,59,37,29.94,29.81,9,1,12,0.00
2013-6-12,88,75,61,59,50,26,72,44,14,29.91,29.81,16,2,19,0.00
2013-6-13,87,74,59,47,41,32,59,32,15,30.03,29.89,14,2,19,0.00
2013-6-14,91,76,65,56,39,32,44,28,15,29.98,29.74,16,4,19,0.00
2013-6-15,91,78,63,56,46,38,53,33,18,29.86,29.76,7,1,11,0.00
2013-6-16,92,77,62,58,52,43,62,43,19,29.99,29.86,7,1,10,0.00
2013-6-17,90,77,65,57,52,47,60,42,27,30.00,29.85,11,2,13,0.00
2013-6-18,80,70,60,56,51,37,77,54,27,29.94,29.81,13,3,16,0.00
2013-6-19,80,68,57,51,46,38,73,47,25,30.02,29.90,10,2,15,0.00
2013-6-20,86,73,57,52,45,39,65,39,20,29.95,29.85,12,1,12,0.00
2013-6-21,90,76,60,53,43,34,58,34,14,29.93,29.82,13,3,20,0.00
2013-6-22,95,80,63,53,43,38,46,29,15,29.88,29.72,12,2,15,0.00
2013-6-23,80,72,66,61,55,44,76,56,32,29.80,29.70,10,3,19,0.00
2013-6-24,72,66,62,60,58,48,94,77,44,29.87,29.71,13,3,19,0.10
2013-6-25,76,67,62,67,63,59,96,87,73,29.93,29.85,13,4,20,0.31
2013-6-26,88,78,68,67,64,60,85,65,39,30.00,29.92,9,2,15,0.00
2013-6-27,98,82,68,66,63,48,85,57,20,30.04,29.94,9,1,12,0.00
2013-6-28,102,87,70,74,65,58,73,50,33,29.97,29.79,7,1,8,0.00
2013-6-29,107,92,75,72,61,51,66,39,16,29.86,29.70,12,2,14,0.00
2013-6-30,106,89,74,71,59,53,58,38,20,29.77,29.65,6,1,8,0.00
2013-7-1,108,91,74,71,60,54,60,38,19,29.79,29.68,8,1,10,0.00
2013-7-2,104,92,79,72,64,57,53,40,30,29.82,29.73,11,2,12,0.00
2013-7-3,109,93,78,80,63,54,55,39,19,29.83,29.63,15,2,27,0.00
2013-7-4,111,97,85,65,56,44,48,28,11,29.71,29.52,15,5,22,0.00
2013-7-5,93,84,75,64,57,47,55,40,28,29.67,29.56,8,2,12,0.00
2013-7-6,93,79,67,68,59,55,67,53,32,29.74,29.63,8,1,10,0.00
2013-7-7,96,81,66,63,55,46,60,42,26,29.78,29.68,6,1,9,0.00
2013-7-8,96,80,66,61,52,43,62,39,23,29.89,29.75,6,1,10,0.00
2013-7-9,100,84,67,57,48,41,51,31,14,29.99,29.86,7,1,10,0.00
2013-7-10,101,86,71,63,50,41,48,30,16,29.89,29.75,9,1,12,0.00
2013-7-11,94,79,66,59,50,41,60,38,22,29.86,29.74,6,1,13,0.00
2013-7-12,92,77,62,59,52,46,71,45,24,29.88,29.77,8,1,11,0.00
2013-7-13,96,80,64,57,50,40,56,37,15,29.91,29.80,7,1,10,0.00
2013-7-14,98,82,66,59,48,40,48,32,17,29.92,29.77,8,1,12,0.00
2013-7-15,92,79,68,63,53,46,60,42,28,29.83,29.69,9,1,12,0.00
2013-7-16,87,73,59,56,53,50,79,53,30,29.95,29.75,9,2,14,0.00
2013-7-17,94,76,59,59,54,45,81,50,23,30.05,29.92,8,1,14,0.00
2013-7-18,97,82,62,62,52,43,62,37,16,29.99,29.83,6,1,10,0.00
2013-7-19,98,84,68,65,56,48,58,39,24,29.87,29.70,7,1,10,0.00
2013-7-20,100,86,72,70,62,55,64,46,28,29.76,29.60,6,1,10,0.00
2013-7-21,99,85,72,72,61,55,59,45,33,29.74,29.63,7,1,10,0.00
2013-7-22,96,82,71,64,55,46,55,41,24,29.89,29.74,7,2,13,0.00
2013-7-23,94,82,69,66,54,46,58,38,25,29.95,29.83,7,2,12,0.00
2013-7-24,99,86,72,64,56,50,54,38,24,29.93,29.79,7,1,10,0.00
2013-7-25,101,88,76,72,63,57,63,44,31,29.89,29.79,7,1,12,0.00
2013-7-26,98,85,72,70,61,53,55,45,35,30.00,29.85,7,1,12,0.00
2013-7-27,96,84,71,67,61,57,63,47,34,29.91,29.71,7,1,13,0.00
2013-7-28,93,81,68,70,61,55,71,52,33,29.79,29.65,11,1,13,0.00
2013-7-29,86,74,62,60,54,50,74,52,36,29.92,29.72,12,2,13,0.00
2013-7-30,90,75,61,62,56,50,75,53,26,30.05,29.91,7,1,10,0.00
2013-7-31,91,77,65,63,56,50,69,51,32,30.01,29.85,10,2,15,0.00
2013-8-1,88,75,63,61,54,47,65,49,33,29.99,29.86,6,1,12,0.00
2013-8-2,94,79,63,58,50,44,61,40,18,29.92,29.79,8,1,10,0.00
2013-8-3,94,79,64,58,51,43,60,39,18,29.91,29.80,8,1,8,0.00
2013-8-4,92,78,64,62,53,43,61,43,25,29.93,29.82,6,1,9,0.00
2013-8-5,92,77,62,62,54,47,72,47,24,29.96,29.83,6,1,8,0.00
2013-8-6,90,75,62,62,55,48,70,51,29,29.95,29.84,7,1,12,0.00
2013-8-7,83,71,60,60,57,55,84,63,41,30.04,29.91,8,2,15,0.00
2013-8-8,86,72,60,61,56,51,84,61,31,29.98,29.84,8,1,10,0.00
2013-8-9,89,73,61,59,54,48,76,53,27,29.91,29.82,7,1,8,0.00
2013-8-10,88,74,60,60,56,51,83,56,31,29.99,29.89,9,1,14,0.00
2013-8-11,91,77,63,62,57,50,75,51,33,29.98,29.82,6,1,9,0.00
2013-8-12,92,78,64,59,54,46,66,46,21,29.94,29.84,7,1,9,0.00
2013-8-13,97,81,65,57,50,42,62,37,15,29.95,29.80,8,1,11,0.00
2013-8-14,98,82,66,62,50,43,54,34,17,29.92,29.78,10,1,11,0.00
2013-8-15,97,81,67,60,53,42,60,41,23,29.91,29.80,9,1,11,0.00
2013-8-16,98,83,68,63,56,48,78,45,20,29.94,29.83,7,1,9,0.00
2013-8-17,98,83,69,66,56,47,60,40,25,29.93,29.74,7,1,10,0.00
2013-8-18,98,83,71,66,59,52,58,45,32,29.84,29.71,6,1,9,0.00
2013-8-19,96,84,74,68,63,59,69,50,32,29.84,29.72,6,1,8,0.00
2013-8-20,96,84,74,72,62,56,63,49,31,29.84,29.68,11,2,14,0.00
2013-8-21,93,80,70,66,60,55,68,51,36,29.85,29.75,8,1,12,0.00
2013-8-22,93,79,67,60,55,46,66,46,20,29.88,29.76,7,1,9,0.00
2013-8-23,91,75,61,61,55,50,76,52,26,29.88,29.69,6,1,10,0.00
2013-8-24,89,77,65,60,56,51,69,50,34,29.81,29.72,8,2,14,0.00
2013-8-25,88,76,67,62,58,50,74,55,33,29.88,29.79,8,2,14,0.00
2013-8-26,89,75,63,59,54,41,82,51,20,29.96,29.83,6,1,11,0.00
2013-8-27,94,78,63,53,49,42,58,39,17,29.85,29.70,11,1,14,0.00
2013-8-28,94,79,65,59,52,40,68,41,17,29.86,29.75,7,1,11,0.00
2013-8-29,94,80,67,62,54,46,70,44,22,29.98,29.84,8,1,11,0.00
2013-8-30,98,81,65,57,50,42,57,35,18,30.01,29.83,7,1,11,0.00
2013-8-31,97,83,67,59,50,42,52,33,22,29.91,29.77,7,1,12,0.00
2013-9-1,86,78,69,60,54,46,58,43,32,29.88,29.77,9,1,15,0.00
2013-9-2,88,77,70,62,59,50,72,54,34,29.89,29.79,12,2,14,0.00
2013-9-3,88,75,64,61,57,51,81,55,28,29.94,29.83,7,1,12,0.00
2013-9-4,89,74,62,60,54,44,75,52,22,29.99,29.83,8,1,10,0.00
2013-9-5,86,73,61,60,54,45,76,53,33,29.95,29.86,8,1,13,0.00
2013-9-6,95,77,61,50,46,40,61,36,16,29.96,29.79,16,3,21,0.00
2013-9-7,98,79,61,56,47,36,57,34,12,29.86,29.74,6,1,8,0.00
2013-9-8,102,82,64,58,48,41,58,33,13,29.83,29.68,7,1,11,0.00
2013-9-9,104,85,67,57,48,39,54,31,11,29.75,29.58,10,2,15,0.00
2013-9-10,96,82,70,62,54,43,69,40,25,29.79,29.62,7,1,12,0.00
2013-9-11,86,73,64,62,59,57,81,63,44,29.94,29.79,8,1,9,0.00
2013-9-12,90,75,62,62,59,56,85,61,34,29.95,29.78,7,1,8,0.00
2013-9-13,93,78,67,64,60,57,76,57,34,29.84,29.65,6,1,10,0.00
2013-9-14,93,79,67,65,60,55,69,54,36,29.75,29.61,6,1,11,0.00
2013-9-15,88,74,61,60,53,44,78,52,22,29.79,29.66,7,1,14,0.00
2013-9-16,88,74,59,58,54,48,75,52,26,29.86,29.68,6,1,11,0.00
2013-9-17,82,71,62,58,53,45,75,55,35,29.85,29.70,11,2,15,0.00
2013-9-18,87,72,61,46,42,34,54,37,15,29.90,29.75,16,4,20,0.00
2013-9-19,90,72,56,52,44,36,55,37,19,29.84,29.69,5,0,11,0.00
2013-9-20,86,72,58,58,48,40,69,44,23,29.76,29.66,12,2,17,0.00
2013-9-21,68,62,56,60,58,54,94,87,69,29.89,29.72,14,3,20,0.90
2013-9-22,74,62,51,56,53,49,95,73,43,29.98,29.88,8,1,11,0.00
2013-9-23,85,69,57,58,54,50,84,62,31,30.00,29.87,8,1,12,0.00
2013-9-24,79,70,63,59,55,44,85,61,35,29.93,29.77,11,2,19,0.46
2013-9-25,73,62,51,48,41,31,83,49,22,29.89,29.78,14,4,19,0.00
2013-9-26,75,62,51,42,38,30,66,44,21,30.01,29.84,20,5,23,0.00
2013-9-27,79,64,49,46,39,33,65,43,19,30.10,29.99,12,3,18,0.00
2013-9-28,82,68,53,47,42,36,75,42,21,30.09,29.91,9,1,12,0.00
2013-9-29,74,68,63,59,54,40,74,62,32,30.03,29.94,13,4,18,0.00
2013-9-30,79,70,64,61,59,56,84,71,52,30.01,29.89,12,4,21,0.00
2013-10-1,80,68,60,59,53,41,89,63,33,30.00,29.89,7,1,15,0.00
2013-10-2,80,66,56,52,42,28,73,47,19,29.97,29.89,16,2,22,0.00
2013-10-3,78,64,54,39,33,24,52,33,14,30.11,29.97,23,6,40,0.00
2013-10-4,82,68,55,35,28,19,42,25,10,30.19,30.06,21,5,25,0.00
2013-10-5,85,67,50,40,32,23,53,29,14,30.21,30.10,8,1,12,0.00
2013-10-6,84,65,50,44,39,35,65,42,19,30.14,29.98,5,0,6,0.00
2013-10-7,82,64,50,46,38,32,63,41,20,29.99,29.83,7,0,9,0.00
2013-10-8,78,64,54,41,36,30,56,37,19,29.89,29.63,12,4,18,0.00
2013-10-9,76,65,55,40,37,36,51,37,25,29.74,29.56,20,6,31,0.00
2013-10-10,73,63,54,48,44,36,64,51,37,29.96,29.73,7,1,13,0.00
2013-10-11,76,62,49,46,44,40,82,55,28,30.06,29.93,5,0,10,0.00
2013-10-12,76,62,50,55,46,41,77,57,34,29.98,29.82,7,0,12,0.10
2013-10-13,76,62,50,50,42,38,79,52,27,30.05,29.91,16,4,20,0.00
2013-10-14,78,63,50,42,38,33,67,43,20,30.12,29.98,13,3,16,0.00
2013-10-15,81,64,52,37,33,25,53,35,17,30.09,29.96,15,3,18,0.00
2013-10-16,82,63,47,46,35,26,60,38,19,30.11,29.98,6,0,7,0.00
2013-10-17,81,62,47,47,39,37,72,46,21,30.08,29.93,8,1,9,0.00
2013-10-18,82,64,50,44,40,37,66,44,22,30.05,29.96,6,0,7,0.00
2013-10-19,85,65,48,48,42,39,76,47,21,30.07,29.97,6,0,9,0.00
2013-10-20,86,65,49,49,43,40,76,48,23,30.00,29.84,5,0,7,0.00
2013-10-21,84,65,50,49,44,40,72,49,26,29.98,29.86,4,0,6,0.00
2013-10-22,87,66,51,48,43,34,73,47,20,30.01,29.88,6,0,9,0.00
2013-10-23,86,64,49,46,39,32,73,44,19,29.93,29.81,5,0,6,0.00
2013-10-24,80,62,50,48,41,32,60,46,29,30.04,29.88,5,0,7,0.00
2013-10-25,78,61,48,50,43,35,69,54,33,30.17,30.04,5,0,7,0.00
2013-10-26,80,62,48,48,42,36,73,50,27,30.15,29.98,7,0,7,0.00
2013-10-27,73,58,48,50,43,36,89,59,34,29.98,29.56,15,2,18,0.02
2013-10-28,60,53,45,49,44,40,91,74,52,29.83,29.60,7,1,11,0.01
2013-10-29,62,56,49,48,46,43,78,70,55,30.05,29.83,5,0,8,0.00
2013-10-30,68,54,43,46,42,40,89,67,39,30.15,30.04,5,0,11,0.00
2013-10-31,72,56,44,47,43,39,86,64,39,30.18,30.06,6,0,7,0.00
2013-11-1,77,59,46,49,44,40,86,62,32,30.17,30.00,6,0,11,0.00
2013-11-2,74,59,46,46,40,32,75,50,30,30.01,29.86,22,2,27,0.00
2013-11-3,64,57,49,32,28,25,42,34,25,30.04,29.90,27,9,30,0.00
2013-11-4,69,57,47,30,28,25,46,35,22,30.11,29.91,18,5,24,0.00
2013-11-5,74,58,44,42,34,27,57,42,23,30.22,30.09,12,2,14,0.00
2013-11-6,71,58,50,42,39,36,65,50,31,30.27,30.17,5,0,6,0.00
2013-11-7,74,61,52,43,40,35,67,48,30,30.17,30.03,5,0,8,0.00
2013-11-8,76,58,47,45,39,35,71,51,28,30.07,29.93,4,0,5,0.00
2013-11-9,76,58,45,46,43,40,82,59,32,30.04,29.96,5,0,7,0.00
2013-11-10,75,58,45,46,42,35,81,56,31,30.09,30.02,5,0,8,0.00
2013-11-11,72,56,43,44,38,31,79,52,29,30.16,30.07,5,0,8,0.00
2013-11-12,74,61,52,46,40,35,62,48,29,30.26,30.14,6,0,9,0.00
2013-11-13,82,61,45,46,42,37,78,53,28,30.23,30.04,11,1,15,0.00
2013-11-14,73,59,50,48,42,38,73,56,38,30.08,29.82,5,0,8,0.00
2013-11-15,68,57,48,40,31,27,61,39,22,29.83,29.67,19,4,22,0.00
2013-11-16,65,55,47,42,36,29,67,50,40,29.91,29.71,6,1,11,0.00
2013-11-17,65,51,41,43,38,34,78,63,42,30.09,29.91,7,0,7,0.00
2013-11-18,61,52,41,47,42,36,84,69,51,30.14,30.04,6,0,11,0.01
2013-11-19,56,53,51,54,52,48,97,94,81,30.08,29.92,9,1,13,0.86
2013-11-20,56,55,51,55,54,49,97,97,95,29.93,29.84,7,1,14,0.18
2013-11-21,64,53,44,49,30,18,95,47,17,30.14,29.89,14,4,19,0.00
2013-11-22,74,54,38,26,19,2,54,29,6,30.17,30.02,12,2,19,0.00
2013-11-23,72,54,43,40,26,20,72,38,15,30.11,29.97,12,2,14,0.00
2013-11-24,62,48,0,55,38,33,84,69,46,30.25,30.11,5,0,6,0.00
2013-11-25,64,47,36,41,37,33,90,71,37,30.35,30.26,5,0,6,0.00
2013-11-26,63,47,38,42,38,34,90,74,42,30.29,30.06,5,0,7,0.00
2013-11-27,65,50,40,44,41,37,89,73,45,30.06,29.87,5,0,7,0.00
2013-11-28,71,53,42,44,42,39,90,68,31,30.07,29.88,6,0,6,0.00
2013-11-29,70,53,40,46,40,36,92,66,33,30.21,30.07,5,0,7,0.00
2013-11-30,69,54,44,46,42,40,85,65,38,30.28,30.17,7,1,11,0.00
2013-12-1,67,52,43,46,42,38,86,70,43,30.34,30.21,4,0,6,0.00
2013-12-2,62,52,44,49,44,39,87,74,54,30.21,29.85,6,1,12,0.00
2013-12-3,56,50,37,49,27,15,84,44,20,29.96,29.79,20,6,29,0.00
2013-12-4,49,38,30,21,15,10,61,41,21,30.10,29.96,15,3,19,0.00
2013-12-5,50,35,26,19,18,13,71,52,23,30.16,30.10,8,1,10,0.00
2013-12-6,44,34,0,55,26,18,94,68,46,30.21,29.92,12,2,20,0.25
2013-12-7,44,37,30,36,30,24,95,78,45,30.26,29.91,12,2,18,0.00
2013-12-8,42,32,0,55,20,15,87,62,33,30.37,30.27,11,2,15,0.00
2013-12-9,51,37,29,29,20,14,81,53,24,30.47,30.36,10,2,14,0.00
2013-12-10,53,37,26,30,26,22,84,67,34,30.46,30.21,6,1,8,0.00
2013-12-11,56,40,30,33,29,25,85,69,37,30.27,30.20,3,0,5,0.00
2013-12-12,61,42,30,34,30,26,86,66,33,30.29,30.17,8,0,8,0.00
2013-12-13,63,44,0,55,31,26,82,60,29,30.33,30.23,11,1,13,0.00
2013-12-14,60,46,36,38,34,30,80,65,42,30.43,30.29,6,0,7,0.00
2013-12-15,64,44,32,39,34,29,92,70,36,30.41,30.25,4,0,5,0.00
2013-12-16,64,46,35,40,36,31,87,71,39,30.27,30.13,4,0,5,0.00
2013-12-17,63,46,37,40,36,33,87,72,41,30.21,30.04,4,0,5,0.00
2013-12-18,59,46,37,42,38,33,85,73,49,30.04,29.72,7,0,7,0.00
2013-12-19,60,49,0,55,26,15,86,42,22,29.99,29.69,20,5,26,0.00
2013-12-20,62,46,33,29,18,7,54,35,12,30.03,29.92,9,1,10,0.00
2013-12-21,61,47,37,36,32,26,76,58,36,30.09,29.97,7,1,8,0.00
2013-12-22,71,50,37,44,37,32,81,62,35,30.30,30.09,7,0,8,0.00
2013-12-23,64,49,39,40,38,34,84,67,41,30.43,30.29,6,0,9,0.00
2013-12-24,71,50,38,42,37,34,92,65,29,30.33,30.19,11,1,16,0.00
2013-12-25,67,48,37,44,36,29,81,65,34,30.33,30.22,6,0,8,0.00
2013-12-26,70,48,35,38,34,30,85,63,26,30.29,30.19,6,0,7,0.00
2013-12-27,58,44,36,36,33,30,81,67,40,30.27,30.14,6,0,8,0.00
2013-12-28,70,47,32,33,29,26,84,56,23,30.18,30.06,13,2,16,0.00
2013-12-29,61,48,38,37,31,21,72,53,39,30.21,30.11,5,0,8,0.00
2013-12-30,64,46,35,36,33,29,80,61,30,30.27,30.20,3,0,4,0.00
2013-12-31,66,49,40,35,32,28,75,56,25,30.27,30.15,7,0,11,0.00
2014-1-1,61,47,36,37,34,30,78,62,38,30.22,30.13,4,0,7,0.00
2014-1-2,68,49,36,40,35,31,82,63,30,30.20,30.05,6,0,7,0.00